Weather Roundup
Issued by NWS

Home | Current Version | Previous Version | Text Only | Print | Product List | Glossary On
Versions: 1 2 3 4 5 6 7 8 9 10 11 12 13 14 15 16 17 18 19 20 21 22 23 24 25 26 27 28 29 30 31 32 33 34 35 36 37 38 39 40 41 42 43 44 45 46 47 48 49 50
000
NZUS93 KARX 221410
HRRWXR

CURRENT HOURLY OBSERVATIONS ACROSS
MUCH OF THE UPPER MISSISSIPPI VALLEY
NATIONAL WEATHER SERVICE LA CROSSE WI
900 AM CDT WED OCT 22 2014


...SOUTHEAST MINNESOTA...


CITY           SKY/WX    TMP DP  RH WIND       PRES   REMARKS
ROCHESTER      SUNNY     41  36  82 S16G22    30.25S
ROCHESTER/MAYO FAIR      41  33  74 SE12G20   30.24F
WINONA         SUNNY     41  37  87 SE6       30.30S
AUSTIN         SUNNY     39  37  93 S12       30.23S WCI  32
ALBERT LEA     MOSUNNY   43  39  87 S18G24    30.20S
DODGE CENTER   SUNNY     43  37  81 S15       30.22S
PRESTON        SUNNY     38  35  87 S10       30.28R WCI  31
OWATONNA       SUNNY     43  37  81 SE17G25   30.19S
FARIBAULT      FAIR      45  37  76 SE13      30.20R
$$

...ELSEWHERE IN MINNESOTA...


CITY           SKY/WX    TMP DP  RH WIND       PRES   REMARKS
MINNEAPOLIS    MOSUNNY   42  36  79 SE14      30.20S
INTNL FALLS    SUNNY     44  37  76 S9        30.04S
DULUTH         SUNNY     42  34  73 S12       30.19S
RED WING       SUNNY     45  36  70 SE13      30.24S
REDWOOD FALLS  SUNNY     48  39  71 SE18      30.05F
MANKATO        PTSUNNY   45  36  70 SE20G26   30.14F
WORTHINGTON    SUNNY     48  39  71 S16G24    30.06F
FAIRMONT       PTSUNNY   45  36  70 SE22      30.13F
$$

...SOUTHWEST WISCONSIN...


CITY           SKY/WX    TMP DP  RH WIND       PRES   REMARKS
LA CROSSE      SUNNY     42  36  79 SE7       30.31F
PRAIRIE DU CHI SUNNY     38  35  89 E5        30.33S WCI  34
BOSCOBEL       FOG       34  33  96 CALM      30.35S VSB<1/4
LONE ROCK      FOG       35  31  85 E3        30.36R VSB<1/4
PLATTEVILLE    SUNNY     39  37  93 CALM      30.34R
FORT MC COY    SUNNY     33  33  96 CALM      30.33F
CAMP DOUGLAS   SUNNY     32  32 100 N1        30.34R
VIROQUA        FAIR      38  38  99 SE8       30.31F WCI  33
WIS DELLS      SUNNY     33  32  96 E5        30.34F WCI  29
$$

...ELSEWHERE IN WISCONSIN...


CITY           SKY/WX    TMP DP  RH WIND       PRES   REMARKS
MILWAUKEE      MOSUNNY   43  36  76 NW5       30.37R
MADISON        MOSUNNY   36  33  89 CALM      30.36S
GREEN BAY      FOG       32  32 100 CALM      30.39R VSB<1/4
EAU CLAIRE     SUNNY     40  34  79 SE7       30.28F
BLACK RVR FLS  FAIR      32  32 100 CALM      30.32F
MEDFORD        SUNNY     35  33  93 S5        30.32R WCI  31
WAUSAU         SUNNY     33  32  96 SE7       30.33F WCI  27
WIS RAPIDS     SUNNY     36  34  92 E5        30.35F WCI  32
MARSHFIELD     MOSUNNY   36  34  92 SE5       30.32S WCI  32
RICE LAKE      SUNNY     39  35  84 SE10      30.28S WCI  32
$$

...NORTHEAST IOWA...


CITY           SKY/WX    TMP DP  RH WIND       PRES   REMARKS
DECORAH        SUNNY     39  36  87 S6        30.29S WCI  35
MASON CITY     PTSUNNY   41  38  89 SE15G24   30.24S
CHARLES CITY   SUNNY     41  37  87 SE13      30.27F
OELWEIN        SUNNY     41  37  87 SE13      30.30S
$$

...ELSEWHERE IN IOWA...


CITY           SKY/WX    TMP DP  RH WIND       PRES   REMARKS
DES MOINES     MOSUNNY   46  39  76 SE9       30.24R
IOWA CITY      SUNNY     41  38  89 SE7       30.33S
FORT DODGE     CLOUDY    46  37  71 SE9G16    30.19S
$$

...NORTHERN ILLINOIS...


CITY           SKY/WX    TMP DP  RH WIND       PRES   REMARKS
CHICAGO-OHARE  MOSUNNY   46  40  79 NE6       30.35R
CHICAGO-MIDWAY MOSUNNY   46  37  71 SE7       30.36R
MOLINE         SUNNY     38  35  89 E5        30.34S WCI  34
ROCKFORD       SUNNY     39  35  86 CALM      30.38R
PEORIA         SUNNY     44  39  82 E7        30.35R
$$

NOTE: "FAIR" INDICATES FEW OR NO CLOUDS BELOW 12,000 FEET WITH NO
SIGNIFICANT WEATHER AND/OR OBSTRUCTIONS TO VISIBILITY. WIND
SPEEDS ARE IN MILES-PER-HOUR.



USA.gov is the U.S. government's official web portal to all federal, state and local government web resources and services.